Location: Allos
(44.2333°N, 6.6333°E)
Time: 12:19:03
(UTC+00:00)

Meteor 1-10 Rocket - Pass Details

Date: 01 December 2020
Orbit: 836 x 910 km, 81.3° (Epoch: 26 January)

Event Time Altitude Azimuth Distance (km) Brightness Sun altitude
Rises 18:16:54 0° 194° (SSW) 3,428 7.6 -24.6°
Reaches altitude 10° 18:19:21 10° 196° (SSW) 2,485 6.9 -25.0°
Maximum altitude 18:24:58 73° 281° (WNW) 887 4.3 -26.0°
Enters shadow 18:28:35 23° 3° (N) 1,736 5.7 -26.7°
